User: anonymous   Login
Location: La B�doule
(43.2468°N, 5.5934°E)
Time: 17:05:32
(UTC+00:00)
Language:

Cosmos 1125 Rocket - Orbit

View from above orbital plane
View from above orbital plane
View from above satellite
View from above satellite

Ground track
Ground track

The orbit data is extracted from the following two-line orbital elements,

1 11511U 79078B   20228.46145690  .00000018  00000-0  15143-4 0  9996
2 11511  74.0383 351.6894 0016477 311.1896  48.7836 14.36889039144541
Epoch (UTC): 15 August 2020 11:04:29
Eccentricity: 0.0016477
inclination: 74.0383°
perigee height: 757 km
apogee height: 780 km
right ascension of ascending node: 351.6894°
argument of perigee: 311.1896°
revolutions per day: 14.36889039
mean anomaly at epoch: 48.7836°
orbit number at epoch: 14454

The dashed part of the orbit path shows where the satellite is in the earth's shadow,  

DLR